Tracking 30922 objects as of 2-Jul-2025
HD Live streaming from Space Station
objects crossing your sky now

YAOGAN-30 X

Track YAOGAN-30 X now!
10-day predictions


NORAD ID: 48423
Int'l Code: 2021-039A
Perigee: 570.7 km
Apogee: 576.9 km
Inclination: 35.0 °
Period: 96.0 minutes
Semi major axis: 6944 km
RCS: Unknown
Launch date: May 6, 2021
Source: People's Republic of China (PRC)
Launch site: Xichang Space Center, China (XSC)
Your satellite tracking list
FENGYUN 1C DEB
Track 1 satellite(s)




NASA's NSSDC Master Catalog

Two Line Element Set (TLE):
1 48423U 21039A   25182.80875803  .00002302  00000-0  18324-3 0  9991
2 48423  34.9988   3.0857 0004463 248.6922 111.3309 15.00089841226865
Source of the keplerian elements: AFSPC